This demonstration page uses our WeatherBlox Daily Observations layout. Learn more.

Left ArrowRight Arrow

Hourly Observations for April 15, 2018

Temp ( °F °C ) Dew Point ( °F °C ) Humidity (%) Winds ( mph kmh ) Pressure ( in mb ) Visibility ( mi km ) Precip ( " mm )
12:53 am 00:53 Clear 61 16.1 32 0 34 34 W 6 9 29.98 1015 10 16 0.00 0.00
1:53 am 01:53 Partly Cloudy 59 15 36 2.2 42 42 S 3 6 29.95 1014 10 16 0.00 0.00
2:53 am 02:53 Clear 59 15 36 2.2 42 42 WSW 6 9 29.94 1014 10 16 0.00 0.00
3:53 am 03:53 Clear 59 15 37 2.8 44 44 SSW 6 9 29.91 1013 10 16 0.00 0.00
4:53 am 04:53 Clear 57 13.9 39 3.9 51 51 WSW 6 9 29.90 1012 10 16 0.00 0.00
5:53 am 05:53 Clear 57 13.9 40 4.4 53 53 WSW 7 11 29.87 1012 10 16 0.00 0.00
6:53 am 06:53 Sunny 56 13.3 42 5.6 60 60 SW 3 6 29.87 1011 10 16 0.00 0.00
8:53 am 08:53 Sunny 56 13.3 41 5 57 57 WSW 5 7 29.86 1011 10 16 0.00 0.00
9:53 am 09:53 Mostly Sunny 58 14.4 39 3.9 50 50 SSW 8 13 29.85 1011 10 16 0.00 0.00
10:53 am 10:53 Cloudy 57 13.9 40 4.4 53 53 SW 5 7 29.82 1010 10 16 0.00 0.00
11:53 am 11:53 Cloudy 59 15 41 5 51 51 S 13 20 29.79 1009 10 16 0.00 0.00
12:53 pm 12:53 Cloudy 61 16.1 41 5 48 48 S 15 24 29.75 1007 10 16 0.00 0.00
1:53 pm 13:53 Cloudy 61 16.1 40 4.4 46 46 SSW 20 31 29.72 1007 10 16 0.00 0.03
2:18 pm 14:18 Cloudy with Rain 54 12.2 49 9.4 83 83 WNW 10 17 29.74 1007 4 6 0.03 0.76
2:53 pm 14:53 Cloudy with Light Rain 55 12.8 49 9.4 80 80 WSW 7 11 29.73 1007 8 13 0.06 1.52
3:53 pm 15:53 Cloudy with Light Rain 53 11.7 47 8.3 80 80 WSW 7 11 29.71 1006 6 10 0.08 2.03
4:53 pm 16:53 Cloudy 54 12.2 43 6.1 67 67 WSW 9 15 29.72 1006 10 16 0.01 0.25
5:53 pm 17:53 Cloudy 54 12.2 40 4.4 59 59 SW 12 19 29.72 1006 10 16 0.00 0.00
6:53 pm 18:53 Sunny 57 13.9 37 2.8 47 47 VRB 5 7 29.72 1007 10 16 0.00 0.00
7:53 pm 19:53 Clear 52 11.1 36 2.2 55 55 W 6 9 29.73 1007 10 16 0.00 0.00
8:53 pm 20:53 Mostly Clear 50 10 36 2.2 59 59 W 8 13 29.76 1008 10 16 0.00 0.00
9:53 pm 21:53 Cloudy 49 9.4 38 3.3 66 66 NW 5 7 29.78 1009 10 16 0.00 0.00
10:53 pm 22:53 Clear 43 6.1 37 2.8 80 80 ESE 6 9 29.80 1009 10 16 0.00 0.00
11:53 pm 23:53 Mostly Clear 41 5 37 2.8 86 86 NNE 6 9 29.81 1010 10 16 0.00 0.00

Powered by AerisWeather